CBERS 1 DEB, 30791

Orbit data source: Space-Track

CBERS 1 DEB, 30791 is space debris in SSO originally from a launch on Thu, 14 Oct 1999 UTC launched from the Taiyaun Space Center, China (TSC). Debris objects in space refer to the collection of defunct objects orbiting the Earth. Examples of debris include non-operational satellites, rocket bodies, and fragments generated from explosions, collisions, or faulty payload assembly.

Loading next visibility...
Identifier
30791, 1999-057PA
Orbit
SSO
Country
Flag of UnknownUnknown / CHBZ
Related business
Manufacturer
Unknown
Mission
Spacecraft
Bus & Motor
Unknown
Mass
Unknown
Launch date (UTC)
1999-10-14 (26 years ago)
Launch vehicle
Unknown
Launch site
Taiyaun Space Center, China (TSC)
Object type
Payload
Rocket body
Debris
Shape & HBR
Unknown shape, 0.1 m
Radar Cross Section
Small (<0.1 m²)

Expand to show TLE details & history
Last TLE update: 11 hours ago

TLE from 11 hours ago
0 CBERS 1 DEB
1 30791U 99057PA  26038.12433787  .00004961  00000-0  89961-3 0  9990
2 30791  98.5440  96.3664 0004811  40.6617  13.4486 14.66728497999506
Epoch: 2026-02-07T02:59Z
TLE epoch observation values (Epoch: 2026-02-07T02:59:02.791Z)
Latitude
53.35598°
Longitude
-97.236°
Altitude
676.956 km
Speed
7.525 km/s
True Right ascension
05h 39m 06s
True Declination
53° 11' 21"
Sunlit
Object was in full shadow at epoch
Visualization orbit readout
Latitude
Unknown
Longitude
Unknown
Altitude
Unknown
Speed
Unknown
Apparent Right ascension
Unknown
Apparent Declination
Unknown
Sunlit
N/A
Visualization observer readout
Local Sidereal Time
16:35:50
Azimuth
Unknown
Elevation
Unknown
Doppler factor
Unknown
Orbital elements
Apogee altitude
672.01 km
Perigee altitude
665.23 km
Semi-major axis
7,046.757 km
Eccentricity
0.00048
Inclination
98.544°
RAAN
96.3664°
Arg. of periapsis
40.6617°
True anomaly
13.46143°
Mean anomaly
13.4486°
Eccentric anomaly
13.45501°
Mean motion
3.6691 °/min
Orbital period
98.12 mins
BSTAR
0.00089961
Loading maneuver chart data...
Computing Atmospheric mass density...
Loading historical data...
Loading historical data...
Loading historical data...
Loading historical data...
Loading historical data...
Loading historical data...
Loading historical data...

Documentation

Showing up to 5 results
|